Regional Weather Roundup
Issued by NWS

Home | Current Version | Previous Version | Graphics & Text | Print | Product List | Glossary On
Versions: 1 2 3 4 5 6 7 8 9 10 11 12 13 14 15 16 17 18 19 20 21 22 23 24 25 26 27 28 29 30 31 32 33 34 35 36 37 38 39 40 41 42 43 44 45 46 47 48 49 50
000
ASUS43 KTOP 030408
RWRKS

WEATHER ROUNDUP FOR KANSAS
NATIONAL WEATHER SERVICE GOODLAND KS
1000 PM CST FRI DEC 02 2016

NOTE:  "FAIR" INDICATES FEW OR NO CLOUDS BELOW 12,000 FEET WITH NO
SIGNIFICANT WEATHER AND/OR OBSTRUCTIONS TO VISIBILITY.

KSZ001>006-013>018-027>032-041>047-030500-
NORTHWEST KANSAS

CITY           SKY/WX    TMP DP  RH WIND       PRES   REMARKS
HAYS           CLOUDY    30  24  78 CALM      30.31R
$$

KSZ061>065-074>080-084>089-030500-
SOUTHWEST KANSAS

CITY           SKY/WX    TMP DP  RH WIND       PRES   REMARKS
DODGE CITY     CLOUDY    38  20  48 CALM      30.28R
ELKHART          N/A     39  10  30 E10         N/A  WCI  32
GARDEN CITY    CLOUDY    37  18  46 E9        30.27R
GREAT BEND     CLOUDY    34  22  61 CALM      30.31R
LIBERAL        CLOUDY    43  16  33 E10       30.26R
PRATT          CLOUDY    35  22  58 N3        30.30S
$$

KSZ066>073-081>083-090>101-030500-
SOUTHEAST KANSAS

CITY           SKY/WX    TMP DP  RH WIND       PRES   REMARKS
CHANUTE        CLOUDY    44  27  51 E9        30.30R
COFFEYVILLE    MOCLDY    45  29  53 NE9       30.29R
HUTCHINSON     CLOUDY    39  25  57 NE6       30.29R
MEDICINE LODGE   N/A     42  23  46 NE3       30.28R
NEWTON         CLOUDY    38  24  57 E7        30.30R
PARSONS        CLOUDY    46  28  49 VRB6      30.30R
WICHITA JABRA  CLOUDY    41  26  55 E7        30.29R
WICHITA MCCONL CLOUDY    43  24  47 E7        30.29R
$$

KSZ007>012-019>026-033>040-048>060-102>105-030500-
NORTHEAST KANSAS

CITY           SKY/WX    TMP DP  RH WIND       PRES   REMARKS
CONCORDIA      CLOUDY    31  25  78 CALM      30.33R
LAWRENCE       PTCLDY    30  25  81 CALM      30.34R
MANHATTAN      PTCLDY    28  24  85 N5        30.33R
$$




USA.gov is the U.S. government's official web portal to all federal, state and local government web resources and services.